Powrót do katalogu

HULIANWANG DIGUI-11

AktywnyŁącznośćLEO
NORAD 62971·PAYLOAD·🇨🇳 China

Wystrzelony Feb 11, 2025 z Wenchang Space Launch Site

Loading…

Następne Przeloty (najbliższe 24 godziny)

TLE

ŚwieżeSource: Space-Track

Epoka: Sep 14, 2026, 13:10 UTC

1 62971U 25030A   26257.54862433 -.00000093  00000-0  66213-4 0  9997
2 62971  50.0000 275.3052 0000481  44.9708 315.1203 13.29327085 77741

Śledź HULIANWANG DIGUI-11 w czasie rzeczywistym z AllMySat

Download on the App Store